RH
49 62 71 73 73 77 79 81 84 85 82 76 69 61 66 80 89 95 95 90 82 71 72 74 66 60 60 66 71 71 71 69 65 64 63 67 75 80 83 86 83 82 83 84 83 77 74 76 71 71 76 74 72 74 81 85 78 77 79 76 73 73 78 81 82 85 83 83 88 89 88 91 96 96 95 93 90 90 89 86 82 83 86 86 85
55 62 68 71 73 77 81 83 85 83 78 73 63 53 63 77 81 88 90 83 77 66 63 67 60 51 50 56 59 58 61 62 61 62 61 64 71 77 79 80 79 81 83 83 82 75 72 74 72 73 76 74 71 73 81 82 78 79 76 72 76 81 79 78 82 85 82 79 79 86 94 97 98 95 92 93 92 91 91 87 86 86 86 86 86
58 59 65 70 72 77 84 87 85 80 75 71 63 52 59 72 73 79 82 75 72 67 58 56 52 49 50 52 52 50 52 59 62 63 65 67 71 74 75 75 76 77 80 83 80 73 70 72 73 75 75 75 72 73 80 80 78 81 75 70 76 83 85 82 83 84 82 79 76 84 96 98 100 98 94 96 95 94 94 92 90 89 86 87 88
54 59 62 67 72 81 88 89 87 82 76 72 64 54 58 67 67 70 75 68 62 58 52 49 48 53 60 59 57 57 57 64 70 71 72 73 74 77 77 76 77 77 80 83 79 72 70 74 77 78 76 75 71 73 79 78 78 80 76 74 73 76 83 86 90 91 85 81 79 85 96 98 100 100 97 99 98 95 94 93 92 91 89 88 90
50 64 66 70 78 86 90 89 86 82 77 72 66 58 57 63 63 63 67 62 52 49 48 49 50 55 64 69 70 73 73 73 73 75 77 77 77 81 81 80 81 81 80 80 77 73 72 77 77 76 75 71 68 73 80 83 83 81 76 73 71 73 76 81 91 95 90 86 81 81 90 97 100 97 97 99 99 95 92 91 92 94 94 91 93
60 71 72 75 81 87 92 90 86 85 81 73 68 66 59 57 57 56 60 59 53 51 49 49 51 52 58 64 68 71 72 72 72 74 78 78 78 82 83 82 82 84 82 78 76 76 76 76 70 68 72 71 71 75 82 89 89 84 79 75 74 78 75 74 82 87 92 94 86 79 79 83 88 90 95 100 101 97 93 92 93 94 97 94 93
66 73 74 76 79 84 88 88 86 83 77 67 66 69 63 58 55 50 51 55 57 57 53 50 51 52 55 57 61 66 65 65 70 76 81 80 78 82 85 84 84 84 82 79 77 76 74 71 68 68 73 74 76 78 81 89 89 82 82 83 80 80 78 78 79 79 87 94 90 84 78 78 81 81 84 88 93 97 97 95 94 93 96 96 95
62 74 77 77 77 79 79 82 83 76 72 75 80 81 72 64 60 53 50 52 56 60 59 55 53 53 58 60 62 66 65 64 69 77 84 83 79 81 86 87 86 82 81 80 76 73 70 68 70 74 76 76 76 78 81 87 88 81 81 85 83 77 77 82 83 77 77 84 87 85 79 79 81 77 75 73 76 91 101 100 96 93 94 96 94
69 77 78 80 83 85 81 80 82 78 75 77 81 87 88 84 79 70 62 55 57 62 61 60 60 59 60 63 64 67 68 69 72 79 85 85 80 81 85 88 87 80 79 78 72 68 68 68 73 77 76 75 75 76 81 85 84 80 79 83 84 80 79 84 86 79 73 77 81 80 78 77 79 80 80 76 73 82 96 100 97 94 93 95 94
82 82 81 85 88 92 91 87 88 87 76 62 57 65 77 87 93 92 81 69 68 71 68 64 66 68 68 68 69 71 72 72 74 80 84 84 81 81 83 86 85 79 78 78 73 71 71 70 73 74 73 74 75 74 79 82 80 80 81 84 84 81 80 84 86 82 77 77 76 75 74 72 74 79 81 82 78 76 81 89 92 90 90 95 98
92 88 85 86 87 89 92 93 95 93 81 66 56 53 56 65 80 95 94 86 84 84 81 74 69 71 74 76 77 76 75 75 76 79 81 83 85 84 83 82 81 80 78 79 80 79 75 72 72 72 73 74 73 73 80 83 79 80 83 84 83 81 79 81 83 82 80 79 77 74 71 66 67 69 70 75 78 74 74 81 87 88 90 95 98
98 96 93 92 92 90 91 91 90 87 80 70 61 59 61 51 54 74 84 88 93 93 91 86 77 74 74 78 84 82 79 79 81 79 78 81 84 86 84 78 76 80 83 82 83 80 75 74 75 74 74 73 72 77 84 83 79 80 82 82 84 85 85 83 81 82 81 80 78 74 72 70 69 69 70 71 73 73 72 76 85 91 95 97 96
86 88 87 87 87 84 84 81 79 78 72 67 64 68 70 54 45 53 62 80 97 97 96 92 82 75 73 78 86 89 86 86 87 82 78 78 78 81 81 76 75 81 84 82 80 76 73 74 75 75 76 75 76 80 81 82 82 82 83 84 86 88 88 84 81 80 80 79 78 74 73 75 75 75 78 77 75 78 76 76 86 94 94 95 97
84 86 86 86 85 82 81 79 78 76 67 64 66 65 65 61 57 53 56 79 99 99 99 94 81 72 72 79 88 93 93 92 91 86 80 77 73 74 75 75 79 79 78 81 80 76 73 71 73 76 79 80 83 83 80 81 82 80 81 84 85 85 83 81 81 80 79 78 79 78 75 75 75 76 79 80 78 78 79 77 83 94 96 93 96
96 96 96 95 94 90 87 84 83 81 73 70 70 66 65 67 71 71 72 86 98 99 100 98 88 80 81 88 93 95 95 95 95 91 86 81 72 69 74 79 82 77 76 81 79 75 72 70 73 78 81 82 84 85 83 84 83 79 79 80 79 80 79 77 77 78 77 76 78 80 78 76 77 77 76 77 76 74 77 79 76 84 94 97 98
100 100 100 97 95 93 90 90 89 86 80 76 78 84 86 85 86 91 92 95 97 97 99 101 99 96 95 98 98 94 93 95 97 95 93 86 75 72 80 89 88 80 81 82 76 74 71 69 77 84 85 83 81 83 85 85 84 81 78 78 77 76 77 76 75 77 78 77 78 81 82 80 80 79 75 75 76 73 77 82 75 70 76 88 100
99 100 101 98 98 98 97 98 97 92 86 84 89 96 99 98 97 96 96 98 98 98 100 99 97 100 99 95 91 83 81 87 92 96 97 88 83 82 82 89 93 86 82 80 79 79 71 67 74 79 80 80 77 80 85 84 83 81 76 74 74 75 77 78 76 78 80 79 78 79 83 83 81 79 76 73 74 75 79 84 79 70 64 68 82
100 100 101 99 100 101 99 100 100 98 96 95 96 97 94 93 94 96 96 97 100 101 99 93 92 97 93 86 83 74 72 83 89 94 95 82 82 89 81 82 93 91 83 82 84 81 73 72 71 67 70 72 71 77 85 84 83 83 79 76 77 77 78 79 78 78 79 79 77 78 81 83 82 80 76 73 74 78 83 85 80 75 69 63 61
100 100 101 100 100 100 100 100 100 99 99 98 97 98 96 93 93 96 97 97 99 100 99 95 94 95 89 85 88 80 75 83 89 92 89 75 75 86 85 84 91 92 87 86 85 78 75 79 76 70 70 65 62 68 72 75 79 81 79 79 82 82 75 73 74 75 78 78 77 77 79 81 82 80 77 78 82 83 85 87 82 77 75 70 62
101 99 100 100 99 100 100 100 101 99 97 96 96 99 100 99 94 89 88 91 96 99 100 98 96 94 90 87 88 87 85 86 87 87 83 77 78 80 81 88 91 90 85 83 83 81 84 89 86 81 74 60 55 57 56 63 70 70 73 78 80 79 72 68 69 72 75 76 76 77 77 78 79 78 79 83 88 88 86 86 85 81 77 74 70
101 100 100 101 99 100 100 99 101 99 97 98 99 99 100 100 97 89 83 83 87 91 92 94 97 98 95 89 84 87 92 90 88 89 83 80 83 75 74 87 91 88 86 87 89 86 86 88 84 82 73 59 56 55 53 59 62 59 66 73 72 71 72 70 69 70 71 72 75 76 75 76 77 76 79 84 88 88 85 83 84 83 81 78 74
101 99 98 99 99 100 100 100 99 96 96 98 99 100 100 100 100 98 93 88 87 87 85 89 97 97 92 90 86 84 87 86 90 94 85 78 78 72 77 89 89 87 89 90 87 84 84 83 78 79 76 66 63 63 61 62 60 56 58 60 62 67 73 72 69 69 70 72 75 75 73 75 77 77 79 83 86 84 81 79 79 79 79 78 74
99 99 97 96 97 98 98 99 99 97 96 98 99 100 99 98 97 97 97 98 97 95 92 93 97 95 88 89 92 89 84 86 93 93 86 83 78 74 83 90 85 85 89 85 83 85 84 77 73 80 83 75 70 70 69 66 64 60 58 60 65 68 72 73 69 67 72 75 75 75 75 76 79 81 80 79 79 76 74 73 73 75 75 73 71
95 96 96 94 92 92 91 92 93 94 94 95 95 94 93 93 91 90 94 99 99 98 99 98 96 92 84 84 94 97 91 91 94 90 88 88 78 74 85 88 82 84 87 83 83 83 72 61 69 85 86 77 75 75 73 70 69 68 68 70 74 76 78 77 72 70 73 76 75 75 77 78 80 82 79 75 73 72 71 69 68 70 69 67 68
93 92 92 94 92 90 91 91 91 91 89 89 88 84 83 84 86 87 88 89 88 84 81 82 84 84 81 82 92 98 95 91 85 83 90 87 74 75 86 87 82 84 84 81 81 77 63 58 73 85 80 75 78 77 74 74 75 74 75 73 73 78 81 79 78 79 78 76 74 73 74 78 79 78 75 72 69 67 65 62 62 63 63 63 65
97 94 93 94 93 92 95 97 98 97 95 94 92 85 80 78 79 81 79 78 79 74 68 70 78 82 83 85 92 97 97 89 78 81 89 80 70 79 88 84 80 80 82 81 81 77 68 66 75 78 74 77 80 75 73 74 74 73 73 70 68 73 79 82 83 84 80 78 76 73 75 79 77 74 72 66 62 61 58 54 55 58 59 59 60
99 97 94 92 93 96 98 99 100 100 100 100 96 89 84 81 78 73 69 71 76 76 75 79 83 86 89 91 94 96 94 86 81 86 88 79 77 86 88 82 78 79 81 81 80 78 71 71 78 77 74 78 77 73 73 71 69 70 71 71 72 75 82 86 86 86 84 82 82 82 80 78 74 70 67 60 56 57 54 51 52 52 53 56 59
98 97 96 96 98 100 100 100 100 99 99 99 95 91 91 93 91 82 73 71 75 78 84 89 88 90 92 92 92 94 92 88 86 88 86 83 85 87 83 79 79 82 82 79 79 77 69 70 78 76 73 74 72 70 71 69 68 70 70 70 75 80 84 86 87 89 83 73 77 85 81 74 71 68 63 59 57 57 56 55 55 53 53 57 60
97 98 99 100 99 100 100 99 98 96 97 99 97 94 96 99 100 96 90 87 88 90 94 97 96 95 91 89 92 95 94 92 90 87 83 81 85 85 80 78 83 85 80 76 78 75 66 68 75 75 72 70 68 66 67 67 69 70 69 69 72 75 78 83 87 89 85 76 78 83 77 71 71 67 63 61 60 61 62 61 60 59 58 59 59
98 99 99 99 99 100 100 98 95 92 95 99 98 97 99 101 98 94 96 97 97 99 100 97 98 98 92 92 96 96 95 94 93 89 82 80 83 82 78 81 84 82 78 77 78 72 64 67 74 74 69 66 65 64 64 67 70 71 69 70 72 72 72 78 81 84 88 88 84 80 75 72 70 67 66 65 62 63 65 65 64 63 62 61 61
99 98 99 100 100 100 99 97 96 96 98 100 100 99 100 101 95 89 90 92 92 97 99 94 96 99 97 96 98 97 97 96 93 89 84 83 84 81 81 84 81 77 78 78 73 66 62 65 69 69 66 65 65 64 65 67 70 71 70 69 72 73 73 75 76 77 81 82 80 77 74 72 69 67 68 68 66 66 67 68 68 66 64 64 63
100 99 99 100 100 100 100 99 99 100 100 100 100 100 100 100 99 94 94 94 93 96 98 95 97 100 100 99 98 98 98 95 93 90 83 83 86 81 80 81 76 75 79 75 66 61 60 61 61 63 64 64 64 66 67 67 67 70 72 70 71 72 73 75 75 75 75 74 74 74 72 71 71 71 70 70 71 72 72 72 70 68 68 68 66
100 99 100 100 100 100 100 100 100 100 101 100 100 100 100 100 100 99 98 98 98 98 97 97 100 100 100 101 98 97 97 95 95 91 82 80 82 77 74 74 74 74 74 70 63 59 57 57 56 58 63 64 65 67 68 68 69 70 70 69 69 68 69 70 71 73 73 70 68 68 67 66 67 67 67 67 68 71 72 73 70 65 64 66 67
100 100 99 99 99 100 100 100 100 100 100 100 100 100 100 100 100 100 99 99 100 100 99 99 101 100 100 101 99 97 95 90 86 84 81 80 78 73 72 73 73 72 69 66 62 59 58 59 57 59 63 65 66 69 69 69 70 70 68 67 67 66 65 66 67 69 69 66 65 64 62 61 61 60 59 58 57 57 58 59 58 55 55 58 60
98 99 98 97 97 99 100 100 100 100 100 100 100 100 100 100 100 100 100 100 100 100 100 100 100 100 100 100 99 93 83 77 79 80 79 78 75 73 74 74 71 69 66 64 63 63 63 63 61 62 65 67 68 70 70 70 70 68 67 65 65 65 65 65 65 65 65 64 64 64 63 63 64 65 64 61 56 52 52 56 60 63 65 67 67
96 95 95 95 95 96 98 98 99 100 99 100 100 100 99 99 100 100 100 100 100 100 100 100 100 100 100 100 100 93 79 76 83 81 73 72 74 74 75 74 70 69 68 66 67 68 67 67 66 66 68 70 69 69 69 70 69 68 66 65 65 65 64 65 65 65 65 65 64 65 66 67 67 67 65 61 56 52 54 62 69 73 76 79 80
93 93 92 93 93 93 94 95 96 97 98 99 99 99 99 98 98 100 100 98 98 99 100 100 99 100 100 99 100 97 85 80 84 79 72 74 77 76 76 75 72 73 73 70 69 69 69 70 69 66 65 67 69 69 69 69 68 67 63 59 59 57 56 57 56 54 53 52 52 56 62 67 70 68 62 58 57 57 59 65 69 71 75 83 86
91 90 90 90 90 90 90 91 92 94 95 95 96 97 97 96 98 101 100 98 98 99 99 99 98 99 100 100 100 97 92 87 84 81 81 82 80 77 76 75 74 75 76 74 71 69 68 67 62 55 51 55 60 63 63 63 65 65 60 54 51 49 48 49 49 50 52 53 53 55 58 61 63 63 62 58 58 61 65 68 69 70 73 79 81
88 87 88 88 88 87 87 88 88 89 89 90 91 92 93 94 96 98 98 99 100 100 99 100 99 97 96 99 101 100 97 94 88 86 85 82 77 77 77 76 75 74 73 72 70 66 63 60 54 48 46 48 51 52 53 55 57 58 57 54 52 51 50 50 53 57 60 62 62 59 55 54 54 57 62 63 62 65 69 71 72 73 72 71 69
81 81 82 84 84 84 83 83 82 83 84 85 86 87 87 90 91 91 94 98 100 100 100 100 100 95 89 89 95 99 100 97 94 92 89 82 75 74 74 75 76 75 72 70 68 65 62 57 53 52 50 49 49 49 49 51 51 52 53 52 50 50 51 53 59 65 67 68 68 66 66 68 69 68 71 74 73 73 74 72 70 69 67 63 61
74 73 72 73 74 73 72 70 68 69 73 77 82 84 84 87 88 88 92 95 97 99 100 100 99 94 86 81 84 92 99 99 95 90 84 76 72 70 69 72 76 75 71 68 67 65 60 57 56 56 54 53 56 57 56 56 57 58 59 59 57 57 58 62 66 71 74 75 75 76 77 79 80 79 79 80 78 74 70 66 62 60 59 58 57
71 69 66 65 64 61 60 58 57 56 56 61 70 76 79 82 84 85 89 91 91 93 96 99 100 97 94 90 85 85 88 90 91 87 79 73 73 74 75 76 73 68 64 63 64 65 64 64 67 68 66 67 70 72 72 72 74 74 74 75 74 72 73 77 78 79 83 85 85 86 85 84 83 80 76 72 68 62 56 51 48 46 45 46 46
77 75 71 68 65 61 59 58 56 55 52 51 54 58 62 67 69 71 77 83 86 88 89 91 95 98 100 100 98 93 89 87 90 92 87 84 84 85 84 82 78 78 81 83 84 86 84 83 84 85 85 85 86 85 82 80 81 81 80 80 81 81 85 88 87 87 89 89 87 85 82 76 69 62 56 52 48 44 41 39 39 41 42 43 44
82 81 80 78 75 71 69 65 60 58 55 51 50 48 49 53 55 55 57 64 71 79 83 83 86 91 95 96 96 96 95 93 94 95 93 92 92 93 92 89 88 90 91 91 91 91 88 85 85 83 81 79 78 79 78 76 73 71 69 69 71 72 74 75 74 74 75 73 72 68 60 52 44 40 39 38 38 39 41 44 47 51 54 54 53
84 84 84 83 82 80 78 75 72 70 66 61 57 51 47 49 49 46 46 47 50 57 64 64 65 72 80 86 89 89 87 86 86 86 85 84 84 84 82 81 82 82 79 77 78 76 73 74 76 73 67 63 59 58 59 59 56 53 50 50 52 54 57 60 60 59 57 53 49 43 37 35 35 38 40 42 45 49 53 56 58 61 62 60 58
88 88 86 84 83 82 78 74 73 72 72 71 69 64 60 58 54 47 45 44 41 42 45 45 47 51 56 63 74 81 82 82 81 78 76 75 76 78 79 80 81 81 80 78 76 73 69 69 70 67 63 59 55 51 47 45 43 40 35 30 30 32 36 40 40 38 35 31 29 29 32 38 44 49 52 53 56 58 60 61 61 61 61 60 59
92 91 88 86 84 83 80 76 71 68 66 67 67 68 69 70 68 62 57 52 47 45 46 46 49 51 49 48 52 58 62 68 72 73 72 70 68 69 74 79 81 81 81 79 77 76 72 69 67 66 63 60 56 52 46 41 38 33 25 18 17 18 18 20 20 20 20 20 24 32 42 50 56 59 60 61 60 60 61 61 60 59 59 58 58
91 90 90 90 89 87 86 83 80 77 73 67 64 63 64 66 69 71 71 68 64 61 59 56 54 54 53 51 48 45 43 44 48 55 63 68 68 66 65 66 69 73 77 76 76 75 73 69 67 65 63 60 57 53 46 39 32 26 19 14 14 15 15 15 15 15 18 25 36 46 54 59 61 60 60 60 59 60 60 60 59 60 61 62 64
89 89 90 91 90 90 88 86 85 85 81 75 68 64 62 64 66 67 68 70 72 73 73 72 67 63 61 58 53 49 45 40 36 36 41 50 59 65 66 64 64 67 71 73 73 72 71 70 68 67 65 63 59 53 44 34 26 21 19 18 18 18 17 17 19 24 32 42 53 59 61 63 62 60 59 60 60 60 61 61 61 61 60 61 62
89 89 89 89 88 88 87 86 85 85 84 81 75 71 71 73 75 75 71 68 68 69 72 75 75 72 70 65 58 52 48 45 40 34 30 30 35 43 54 61 65 67 69 72 73 73 72 71 69 68 65 59 51 43 34 28 26 28 29 29 30 31 30 31 38 46 52 57 61 62 62 62 61 60 60 61 61 62 64 63 61 58 55 54 53
87 86 86 86 85 85 85 85 84 82 82 81 79 78 79 79 82 85 83 77 74 72 73 76 76 73 70 67 63 58 52 49 47 40 33 29 26 26 32 41 47 52 56 58 60 62 62 60 57 52 47 42 37 31 27 30 37 42 44 45 47 50 52 55 59 61 60 60 62 61 60 62 62 62 63 63 64 66 67 67 66 64 61 60 59
Wind_Speed
20 19 20 19 15 14 14 16 17 17 14 12 9 6 7 12 14 16 17 16 18 23 23 23 23 20 19 19 19 19 18 17 18 18 18 19 21 21 21 21 20 20 21 21 21 19 18 18 18 17 15 15 13 13 13 12 11 10 11 12 12 12 12 12 12 11 11 13 13 12 10 9 9 8 8 8 7 6 7 6 6 5 5 6 6
19 19 21 20 17 16 18 19 20 18 16 13 9 6 11 14 13 14 15 15 18 21 21 23 22 19 18 18 18 17 17 17 17 17 19 20 21 21 21 20 20 21 21 21 21 20 19 18 17 17 16 15 14 13 13 13 12 11 11 12 12 11 11 13 12 12 12 12 12 13 11 9 7 6 7 8 7 6 6 7 7 7 6 6 6
20 21 22 22 20 20 22 23 21 18 15 13 9 8 14 14 13 14 13 14 17 19 21 20 19 18 17 18 18 16 17 18 17 17 19 20 21 21 20 20 21 20 21 21 20 20 20 17 16 17 16 16 15 13 14 14 14 13 11 12 13 12 12 12 12 13 11 11 13 13 12 11 9 6 7 7 7 7 6 7 8 8 8 8 7
25 25 25 23 22 23 25 25 23 19 16 14 10 12 15 14 14 15 15 16 18 19 19 18 20 22 21 20 21 20 19 20 19 18 19 21 20 20 20 20 21 20 20 20 19 19 19 18 16 16 16 16 16 15 15 14 14 13 12 14 13 13 14 13 13 13 10 10 12 11 11 13 10 9 9 8 7 7 6 7 8 8 8 9 9
27 25 24 22 23 24 24 24 22 18 15 12 10 13 14 14 15 15 16 18 18 18 19 19 22 24 23 22 22 21 20 20 21 20 21 21 20 21 21 20 20 20 19 18 18 18 18 18 16 15 15 16 16 16 15 15 14 13 13 14 13 12 13 14 15 15 11 8 9 8 10 11 11 13 12 9 7 7 7 7 7 8 8 8 8
21 20 21 21 22 22 22 21 19 16 13 8 10 15 14 14 15 15 17 18 18 19 20 21 23 24 24 23 22 22 21 22 23 23 23 21 20 20 20 19 19 19 19 18 18 17 17 18 16 15 15 15 16 16 16 16 15 14 12 12 12 12 13 13 15 15 12 10 9 8 8 7 10 15 14 11 9 8 7 7 7 8 8 7 8
15 17 18 20 21 21 21 20 18 15 10 7 13 16 15 14 16 16 17 18 19 21 22 22 23 24 24 24 23 23 23 23 22 22 22 20 19 20 19 19 18 18 19 18 17 16 17 18 16 15 15 14 15 15 15 15 14 14 13 12 12 14 14 13 14 15 15 14 12 11 10 6 7 13 14 14 13 11 8 8 8 9 8 8 9
13 15 17 19 20 22 23 21 19 14 10 9 13 15 15 14 15 16 17 18 19 22 22 23 23 24 24 24 23 23 23 22 20 20 21 20 19 20 20 19 18 18 18 17 17 17 17 17 16 15 14 14 14 14 14 14 13 14 14 13 13 15 14 13 14 15 15 16 14 13 11 8 7 11 12 11 13 14 12 10 10 9 9 10 10
11 14 14 15 18 20 20 19 17 13 11 10 11 14 16 17 17 17 17 18 19 21 21 21 22 23 22 23 23 23 22 21 19 19 20 20 19 20 20 20 19 18 17 17 17 17 16 16 15 15 14 14 13 14 14 13 14 15 15 15 15 14 14 13 13 14 14 15 15 14 11 9 10 11 11 10 11 14 15 14 14 12 11 11 9
13 12 11 10 12 14 16 15 14 13 13 11 11 13 16 18 21 21 20 19 19 20 20 19 20 21 21 22 22 22 21 20 19 20 20 20 21 20 21 20 19 19 17 17 17 16 15 16 16 15 14 14 14 14 13 12 14 15 15 16 16 15 15 14 12 12 13 14 14 13 12 11 12 14 13 12 12 13 14 16 16 15 13 11 10
16 14 12 11 11 12 13 14 14 15 15 14 15 15 15 16 20 23 23 21 22 22 21 20 19 19 19 21 22 22 21 20 20 21 21 22 23 22 21 20 19 19 17 17 17 16 15 15 16 15 14 14 14 13 12 12 14 15 15 16 16 15 15 14 13 12 14 15 14 14 13 11 11 12 12 13 13 12 12 15 17 15 13 12 10
15 13 11 11 11 12 12 12 13 13 14 15 17 18 16 13 17 22 23 22 24 24 23 22 20 19 18 19 22 22 22 21 21 21 21 23 24 23 22 21 21 21 19 18 18 16 16 16 16 16 15 15 14 13 13 13 14 15 15 14 14 14 14 14 13 12 14 16 15 15 13 10 10 9 9 11 12 10 10 13 17 16 14 13 12
12 9 7 5 6 7 7 7 8 9 10 13 16 18 18 14 15 19 22 24 26 26 25 23 21 19 18 19 20 22 23 22 21 21 21 22 23 23 23 23 22 22 20 19 18 16 16 16 17 16 14 15 14 13 14 14 14 15 14 14 13 13 12 13 13 12 13 15 14 14 12 11 11 9 9 11 11 10 10 14 17 16 16 16 14
10 7 5 4 4 4 4 5 6 8 10 14 18 19 20 19 19 21 22 25 28 29 28 25 22 20 18 18 18 20 23 23 21 20 21 23 24 22 23 23 23 22 20 18 17 15 15 16 16 15 14 15 15 14 14 14 14 14 14 13 13 12 12 12 13 13 13 13 13 12 13 13 12 11 11 12 12 12 12 16 18 17 16 16 15
9 8 6 4 4 4 5 6 7 11 13 16 18 19 19 20 23 25 25 26 29 31 31 27 23 20 18 18 18 19 21 22 21 21 21 23 23 21 22 23 23 22 20 19 17 15 15 15 16 15 15 16 16 15 15 15 14 14 13 13 13 13 13 13 14 14 13 13 13 13 13 13 12 12 13 13 13 13 13 17 19 19 19 17 15
11 9 7 4 2 2 3 6 9 12 14 17 17 14 14 16 22 26 25 25 28 29 29 27 23 19 18 19 18 18 19 20 21 21 21 23 22 21 22 24 23 21 20 19 18 15 15 16 16 16 16 16 15 14 15 15 14 14 14 14 14 14 14 14 14 14 13 13 14 14 14 13 11 12 13 13 13 13 14 17 18 18 19 19 17
15 11 8 6 3 2 2 2 7 10 12 15 13 10 11 12 17 22 21 21 22 23 24 23 21 18 18 18 17 17 18 19 20 21 20 21 21 21 22 23 22 21 21 19 17 15 15 16 17 17 16 16 15 15 15 15 14 14 14 14 14 14 14 14 14 14 14 14 14 15 14 12 11 13 14 14 13 14 15 16 17 15 14 16 19
19 15 13 11 8 4 2 1 3 8 11 12 11 11 13 12 15 20 20 18 19 18 17 16 16 17 17 17 17 17 19 20 19 19 19 19 20 22 22 22 22 22 21 19 17 16 17 17 17 17 17 16 15 16 15 14 14 13 13 13 13 13 14 14 13 13 15 15 14 14 14 13 12 14 15 14 14 15 15 15 15 14 14 14 14
20 18 18 16 14 10 6 4 3 4 8 10 12 13 13 11 14 17 16 15 18 16 13 13 14 15 15 16 18 18 20 20 19 19 18 18 21 23 23 23 23 23 21 19 19 19 19 19 17 17 16 15 15 16 16 15 14 13 13 13 13 12 13 13 13 13 13 14 13 13 13 13 12 14 15 14 15 15 15 15 14 13 14 13 10
18 18 19 19 18 16 13 11 7 5 6 8 10 11 11 10 13 15 13 13 16 16 13 13 14 14 14 15 17 19 20 20 18 19 19 20 22 23 22 23 23 22 20 21 21 20 20 19 18 17 16 15 15 16 17 16 15 14 14 14 13 12 12 11 11 12 12 12 12 12 12 13 13 14 15 15 16 16 16 16 16 15 14 12 9
18 16 17 18 18 16 15 13 9 6 5 7 9 10 10 9 11 15 16 15 15 15 15 15 13 12 13 13 15 19 21 20 18 19 20 22 24 23 23 25 23 21 21 22 21 20 20 19 18 17 16 16 16 16 16 16 15 14 13 13 13 12 12 11 11 12 12 11 12 12 12 12 13 14 15 17 18 18 16 15 16 18 16 14 12
17 15 13 15 16 16 14 12 9 6 6 9 11 12 12 10 9 12 15 15 15 15 17 17 14 11 12 14 16 18 22 21 20 20 22 24 25 23 24 25 22 20 22 22 21 20 18 16 16 17 17 17 16 15 15 15 14 13 13 14 14 13 13 12 12 11 11 11 12 12 12 12 13 14 15 17 18 16 14 13 14 18 19 17 14
13 13 11 11 11 12 12 10 9 8 8 10 12 13 14 12 10 9 11 11 11 13 15 16 15 13 14 16 17 18 21 22 21 23 25 26 25 23 25 24 20 20 22 21 20 19 17 14 16 19 19 17 16 15 15 14 14 14 14 14 14 13 12 13 12 11 11 11 11 12 13 13 14 15 15 14 14 14 13 12 13 15 17 17 14
8 10 10 10 8 8 9 9 10 10 10 12 13 13 13 13 11 10 9 9 9 10 12 15 15 15 15 17 19 20 20 21 23 25 27 27 24 23 26 23 20 21 22 21 20 17 14 16 20 22 20 17 18 17 16 15 14 14 13 13 13 12 11 12 13 12 12 12 12 12 13 14 14 15 15 14 12 12 13 13 13 14 15 15 15
8 8 9 10 10 9 10 10 11 11 11 12 13 14 13 13 13 12 12 12 12 12 14 17 18 18 18 18 21 22 22 23 25 26 28 27 24 25 27 23 20 22 21 20 18 14 14 19 23 22 19 19 19 18 16 15 13 12 10 10 11 11 10 12 13 13 12 13 12 13 14 15 16 15 14 12 10 11 12 12 12 13 13 13 15
10 10 10 11 11 11 12 12 11 11 12 13 13 13 13 13 13 13 13 13 13 14 16 19 20 20 19 20 22 23 25 27 27 26 28 26 24 27 28 23 21 22 21 19 17 15 15 19 23 22 20 20 19 17 15 14 13 11 9 9 10 11 12 12 13 13 12 12 13 14 16 17 17 14 12 9 9 10 11 11 11 12 12 12 13
12 11 11 11 12 13 14 13 12 12 13 15 15 14 13 12 12 12 12 11 11 12 16 20 22 21 20 19 22 25 27 28 27 27 27 25 26 29 27 22 22 23 21 19 19 16 15 18 22 22 20 19 19 17 16 15 14 12 10 10 11 13 13 13 13 12 12 13 15 16 17 17 15 12 10 8 8 9 9 9 10 11 12 13 14
13 13 14 13 14 15 15 14 13 13 14 15 15 15 15 13 11 11 11 9 9 10 15 20 23 22 20 20 23 27 29 29 28 28 27 27 28 27 24 22 24 24 21 20 20 18 17 19 22 21 19 18 18 18 17 16 14 13 11 11 12 13 14 14 13 12 12 13 14 15 15 14 11 10 10 9 9 9 9 9 9 10 11 13 14
13 15 15 14 14 14 14 14 14 14 14 14 14 15 16 16 15 14 12 10 9 11 14 18 21 21 20 22 26 29 30 29 29 29 27 28 27 24 23 24 24 23 23 22 21 19 19 20 21 20 18 18 18 17 17 16 14 15 14 13 13 14 15 15 14 13 13 13 14 14 14 12 11 11 12 11 10 9 8 8 10 10 11 12 11
13 14 13 12 12 12 12 13 14 14 14 14 14 15 16 16 16 16 14 10 7 9 14 16 19 21 21 24 29 30 30 29 29 28 27 26 26 25 26 26 24 24 24 23 21 20 20 20 20 19 18 19 18 17 17 16 16 16 15 14 14 14 15 16 16 15 15 15 15 14 13 12 11 11 11 11 10 9 8 7 8 9 9 9 9
12 11 11 11 11 11 11 12 12 13 13 13 13 13 14 13 14 15 11 8 7 8 12 14 18 21 22 27 31 32 31 29 29 28 27 26 27 28 28 26 25 26 25 24 21 20 20 20 19 18 18 18 18 17 17 17 17 16 15 15 15 15 16 16 16 15 15 15 15 14 12 11 11 10 10 10 10 10 8 7 7 8 8 7 8
11 10 10 11 11 11 11 11 11 12 12 12 13 13 14 12 12 13 9 6 6 7 9 12 16 19 22 27 31 31 29 28 29 30 30 29 29 28 27 27 26 26 25 24 21 19 20 20 19 18 18 18 17 17 16 16 17 18 17 16 16 16 16 16 15 14 14 13 12 12 11 10 10 9 8 8 9 8 8 7 7 7 7 8 9
11 10 10 11 11 10 9 10 11 11 11 12 13 14 14 12 10 10 8 6 5 4 7 10 13 17 21 25 27 28 30 31 31 31 30 30 29 28 27 27 25 25 24 23 20 18 20 20 19 18 18 18 17 17 17 16 16 18 18 17 16 16 15 15 15 14 14 12 10 9 9 9 8 8 7 8 9 9 9 9 9 9 9 10 11
10 10 11 11 10 9 8 8 9 9 9 9 9 10 11 10 9 8 6 5 2 4 8 10 13 17 21 24 26 29 32 30 29 28 26 26 28 28 27 26 25 25 24 22 20 21 21 21 19 18 17 18 18 18 17 16 16 16 17 17 17 17 16 15 15 14 13 11 9 7 7 7 6 6 6 7 8 9 10 10 10 10 10 11 12
9 10 11 11 10 8 7 8 9 9 8 8 8 9 10 9 7 7 5 3 2 6 9 11 12 14 19 23 26 29 28 25 27 28 25 24 26 26 26 26 26 26 25 23 23 22 21 20 18 17 17 18 19 19 18 17 16 16 16 17 18 18 17 16 14 13 11 10 9 8 7 6 6 6 6 6 8 9 10 10 9 10 10 11 12
9 9 10 11 11 10 9 9 9 9 9 9 9 9 9 7 6 7 8 7 7 8 9 10 10 12 17 22 27 29 26 25 28 31 28 27 27 27 27 28 27 26 26 26 24 22 20 18 17 15 16 17 18 18 17 17 16 16 16 16 17 17 16 15 13 11 9 8 8 7 7 7 7 7 7 8 9 11 11 11 11 11 12 13 14
9 8 9 10 10 10 10 9 8 8 9 10 10 8 7 6 5 7 8 9 10 11 11 10 8 10 15 21 24 26 26 27 30 31 30 30 30 28 28 29 29 28 28 27 25 21 19 16 15 14 14 15 17 17 17 16 16 16 15 15 15 14 13 12 11 9 7 6 6 6 6 6 6 6 7 8 11 12 13 13 13 13 13 15 16
9 8 7 8 8 10 9 8 8 9 9 10 9 7 7 8 9 11 10 10 13 14 12 12 11 9 12 18 22 24 27 30 33 33 33 33 32 31 30 29 28 27 27 26 25 23 21 18 17 16 15 15 17 18 17 16 16 16 16 15 14 11 9 8 7 7 7 7 7 7 6 6 7 8 8 10 12 14 15 15 15 15 15 16 17
8 8 8 8 8 9 8 7 9 11 10 10 9 7 8 12 14 13 13 14 16 16 14 14 14 12 11 14 20 25 30 33 34 35 36 34 31 30 29 27 26 25 24 25 24 23 22 21 20 19 17 16 16 17 17 17 17 16 15 15 13 10 8 8 7 7 7 7 7 7 8 12 14 14 13 13 14 15 16 16 16 15 15 14 15
9 9 9 8 8 8 8 9 11 12 11 10 8 7 10 15 15 14 15 18 18 17 17 15 13 13 12 11 13 19 25 30 31 31 30 26 21 19 18 19 21 22 22 22 21 21 21 21 19 17 16 15 14 13 13 13 13 12 10 10 10 9 9 8 7 7 7 7 7 8 10 12 13 14 14 13 13 13 13 13 13 12 12 12 12
12 11 11 10 10 10 10 12 13 13 12 11 8 8 12 15 15 16 18 18 16 16 17 17 15 14 13 10 9 11 16 21 23 21 19 16 13 12 13 15 17 19 19 19 18 18 18 17 15 13 12 11 11 11 10 11 10 9 8 7 8 9 9 9 8 8 8 8 8 9 10 11 11 11 11 10 10 10 10 10 11 12 12 13 13
13 13 13 13 14 14 14 14 13 12 13 13 11 12 15 16 17 19 18 15 14 15 16 16 17 17 16 15 14 12 11 13 15 15 15 15 15 16 17 18 18 17 17 17 17 17 16 15 14 13 12 12 11 10 10 10 9 8 8 8 8 9 9 8 8 8 8 9 9 9 9 9 9 9 9 9 10 10 10 11 12 12 12 13 13
12 12 13 13 14 15 15 15 14 13 13 13 13 14 17 18 19 18 15 12 13 14 15 16 18 18 19 19 18 17 15 14 14 15 16 17 17 17 18 18 17 16 16 17 16 15 15 15 14 13 11 11 10 10 10 10 10 9 9 9 8 9 9 7 7 8 8 8 8 8 8 8 7 8 9 9 10 9 9 9 9 9 9 10 10
13 13 13 13 13 13 13 13 13 13 13 14 14 15 16 18 19 17 13 11 12 12 14 16 17 18 18 18 18 19 19 18 17 17 18 18 18 18 18 17 16 16 16 16 15 13 13 14 14 14 14 13 11 10 10 10 10 9 8 8 8 8 8 8 7 7 8 7 7 7 7 7 7 8 7 7 7 6 6 6 6 6 6 6 7
16 16 15 15 14 14 13 13 12 12 12 12 13 13 15 18 18 15 14 13 12 12 14 16 17 16 15 14 15 17 18 19 19 19 20 21 20 20 20 19 18 16 16 16 15 14 12 12 13 13 14 13 12 10 9 9 8 7 6 6 7 8 9 9 9 8 8 8 8 8 7 8 8 8 7 6 6 5 4 4 4 4 4 5 7
17 17 17 16 16 16 17 17 16 15 14 13 12 12 13 15 14 13 13 13 12 13 14 16 17 17 15 12 12 13 14 14 15 15 16 18 18 18 17 16 15 14 14 15 15 14 13 13 13 13 12 11 9 7 6 5 4 3 3 4 6 7 8 9 9 9 9 8 8 8 9 10 9 8 7 7 6 5 4 3 3 3 5 7 9
18 18 18 18 19 19 20 21 21 20 19 18 16 15 14 12 10 10 10 10 11 13 14 15 16 16 15 13 12 11 10 10 11 11 11 12 12 12 11 12 12 12 12 12 12 12 12 12 12 11 9 7 6 4 2 1 1 2 2 3 4 6 7 8 9 9 9 8 10 12 13 12 10 8 7 6 4 3 3 3 5 7 9 10 11
16 17 17 16 17 18 19 20 21 22 22 21 19 19 17 15 13 10 8 6 7 9 12 15 16 17 17 15 13 11 9 8 8 8 8 10 10 10 9 10 11 11 10 9 9 9 10 9 8 8 6 4 3 2 3 3 3 2 2 2 3 4 6 7 8 9 10 12 13 14 14 12 9 7 6 4 3 3 4 6 8 9 10 10 11
14 15 14 13 13 13 13 14 16 18 20 21 20 19 18 17 17 15 12 10 8 7 8 11 13 15 16 16 15 13 11 9 7 6 5 6 7 8 8 9 11 11 10 8 8 9 9 8 6 5 4 2 1 2 2 2 1 1 3 4 6 7 8 9 11 12 13 14 15 14 13 10 8 6 5 4 4 4 6 7 8 9 9 10 10
13 13 12 11 11 11 11 12 12 13 15 18 19 19 17 16 15 15 15 15 15 13 12 11 11 12 13 15 15 15 14 12 9 7 5 3 3 5 6 6 8 9 9 9 8 8 7 6 3 2 1 0 1 1 3 4 5 7 7 8 9 10 10 12 14 14 13 13 13 12 11 9 7 5 4 3 4 5 6 7 8 9 10 11 11
13 13 12 11 11 11 10 11 12 13 13 14 16 18 16 14 12 12 12 13 14 14 14 13 11 11 11 11 12 13 13 12 11 10 8 6 4 3 5 5 5 6 6 6 5 5 4 3 2 2 2 1 1 4 7 9 10 11 10 11 12 12 12 13 12 11 11 12 11 10 10 8 6 4 3 3 5 6 7 8 9 9 10 11 11
Wind_Direction
192 183 185 189 195 197 189 184 179 172 170 168 161 171 204 206 207 211 212 208 202 200 193 185 187 191 196 205 209 213 218 219 218 217 219 218 213 211 212 213 215 216 217 217 217 216 210 202 195 188 187 194 197 185 183 198 201 193 191 192 200 199 184 184 193 187 176 172 174 179 182 184 190 194 197 199 196 196 203 209 213 210 193 183 186
189 186 186 188 194 195 190 185 179 173 170 166 155 176 209 203 197 204 200 191 195 198 193 188 192 194 194 200 206 212 217 220 222 221 218 214 210 209 209 213 217 218 218 217 218 217 210 203 195 190 190 194 197 188 187 200 205 206 207 200 195 196 194 192 193 190 185 182 178 174 172 171 182 195 195 191 189 193 205 209 210 206 197 188 185
191 189 187 189 192 190 186 183 179 179 173 161 161 205 214 196 183 193 189 180 186 191 194 195 192 186 185 194 202 209 215 220 225 224 217 211 209 209 210 215 219 218 216 216 217 216 212 209 202 196 196 195 195 193 196 203 207 209 210 205 193 185 191 194 192 193 191 184 176 172 171 163 159 183 194 191 192 192 201 209 204 197 194 190 186
196 191 190 191 187 183 182 179 176 177 172 162 180 218 214 188 174 182 177 176 185 187 190 191 186 185 190 198 205 210 214 217 221 219 215 212 211 211 211 215 217 215 214 215 216 213 211 212 208 202 200 198 196 197 200 206 209 208 204 204 198 190 191 187 184 193 193 186 179 170 172 165 158 179 188 187 196 195 201 206 197 195 202 200 189
197 188 186 182 176 178 180 179 178 179 173 170 202 226 215 184 168 176 174 174 186 188 185 186 187 191 198 205 213 216 218 220 219 217 214 213 211 212 210 210 213 212 211 212 212 210 208 210 211 208 203 199 200 199 198 203 209 208 205 203 200 201 202 188 184 193 194 202 205 185 176 173 177 187 182 177 195 199 197 203 200 200 209 206 189
190 179 179 176 174 178 179 182 183 178 167 176 225 229 216 189 171 176 179 178 190 194 190 191 192 196 201 207 213 215 219 220 220 219 216 213 211 211 209 207 210 209 208 208 210 210 208 208 211 210 206 203 204 203 196 197 205 205 203 200 197 205 212 202 195 194 189 197 215 214 205 197 192 190 177 168 184 196 194 197 201 196 199 201 189
186 178 178 178 179 181 183 188 189 183 183 213 231 223 215 200 180 178 182 184 192 195 197 199 199 202 206 210 215 218 221 223 223 222 218 217 214 212 209 206 206 205 205 209 210 208 206 206 209 210 209 207 207 206 195 191 202 206 197 195 200 204 207 208 204 197 190 190 202 210 216 228 217 200 187 177 179 185 190 195 191 185 185 186 184
191 177 177 182 187 190 192 196 197 199 206 210 209 209 218 219 199 189 188 188 192 195 200 204 204 206 209 213 219 224 228 231 231 225 220 219 214 211 209 205 205 202 202 207 205 202 203 205 208 210 210 208 206 204 193 187 201 209 199 196 206 206 204 208 208 205 199 193 196 202 210 226 225 210 204 200 188 175 176 190 185 177 177 174 178
168 165 173 181 186 191 197 201 202 203 199 192 196 203 214 223 218 213 207 197 195 197 200 206 207 208 212 218 222 227 232 234 235 231 224 216 210 209 206 203 203 199 198 202 200 199 203 204 205 208 208 204 199 193 186 186 199 205 200 199 206 207 207 210 212 214 207 197 199 201 204 208 200 197 202 213 206 182 178 187 183 179 181 178 184
136 150 160 164 172 185 196 202 201 198 199 209 230 224 216 220 221 222 225 217 208 204 204 207 208 207 212 220 225 229 230 229 229 228 222 212 208 207 203 201 200 197 197 198 196 197 200 200 199 201 200 193 189 185 181 187 194 196 198 200 205 207 208 210 213 216 209 202 207 206 202 197 188 190 196 202 207 198 191 191 184 183 185 181 185
125 136 143 145 154 169 185 195 195 196 205 221 240 239 228 229 229 228 230 228 220 214 212 212 212 208 208 215 222 227 226 222 220 220 215 209 207 206 201 198 197 196 196 192 189 191 192 192 191 191 191 187 185 183 183 191 195 195 199 201 204 208 209 208 207 208 204 201 207 211 210 210 204 203 204 201 200 203 202 190 180 180 182 181 183
114 124 133 139 147 159 172 187 194 201 214 227 238 237 228 234 246 240 234 232 227 222 218 217 217 212 208 211 216 221 221 218 216 217 216 209 204 202 199 198 197 195 192 189 187 186 185 185 183 183 185 187 185 184 189 195 196 197 200 201 203 205 207 207 201 198 201 203 209 212 210 212 217 220 218 209 201 208 213 189 175 174 176 177 180
94 108 122 135 155 171 183 199 211 216 221 223 227 230 227 227 235 234 232 231 229 227 224 221 219 217 216 215 216 219 220 219 218 218 216 208 200 199 198 196 197 194 189 187 184 180 180 180 180 180 181 184 184 187 192 193 195 199 199 201 205 206 206 207 203 201 203 207 212 213 207 204 206 210 215 213 205 207 211 191 175 174 178 176 176
85 95 108 134 160 188 214 231 235 223 210 206 208 218 225 221 216 218 223 227 228 231 231 226 223 223 223 223 220 221 222 223 224 222 215 206 199 198 198 195 195 192 187 186 182 176 178 178 179 180 178 181 183 186 191 191 196 201 200 202 207 209 211 208 205 207 207 208 212 211 208 207 207 207 210 212 208 204 202 193 181 174 180 180 177
71 79 85 114 147 176 212 224 220 215 210 207 208 217 227 226 222 221 223 226 226 228 231 231 229 225 225 226 225 224 228 230 231 225 213 205 200 198 197 194 194 191 186 186 184 178 179 180 180 180 178 180 182 183 187 191 196 199 199 202 205 206 209 209 207 208 208 209 210 211 212 211 210 211 210 208 209 207 202 201 192 178 176 181 184
40 51 61 67 95 146 221 221 215 219 222 223 221 228 240 235 227 226 229 234 234 234 236 234 230 225 223 226 227 228 233 236 239 232 213 201 199 197 195 192 192 190 186 186 186 181 181 181 181 182 181 182 183 183 185 189 193 196 196 197 200 203 204 207 208 207 210 213 212 212 212 213 214 214 212 209 210 209 206 207 205 193 183 182 184
37 40 46 43 35 9 312 236 219 225 231 233 231 241 257 241 222 223 232 244 247 246 244 236 229 227 224 225 228 228 230 232 237 236 217 197 195 197 197 195 191 188 187 187 186 183 181 180 180 182 184 185 186 185 184 186 188 190 192 191 196 199 198 202 207 207 210 213 213 213 212 218 222 215 210 210 208 205 204 208 211 212 210 195 187
46 43 43 42 39 22 343 329 238 237 242 245 245 254 263 253 233 228 233 244 249 246 242 236 232 231 227 228 229 226 226 225 226 229 216 197 196 198 196 197 193 188 188 188 188 185 180 180 180 179 181 184 187 186 185 186 182 183 189 190 192 194 194 197 200 205 209 211 212 213 215 221 223 213 206 206 206 201 199 204 208 212 220 216 203
48 44 44 45 46 41 29 15 344 276 264 262 260 265 268 258 246 241 240 247 253 253 245 239 239 238 236 236 232 225 222 221 220 220 212 201 201 196 190 194 193 187 186 188 188 185 180 180 181 179 177 179 183 183 184 185 181 181 185 187 190 192 192 193 192 197 205 210 213 213 214 217 213 206 201 200 202 198 193 198 205 208 211 215 221
46 43 44 48 51 49 46 39 18 345 317 290 278 281 286 274 254 248 247 250 257 259 249 243 246 247 247 241 230 224 220 220 218 213 207 202 199 192 188 190 186 182 184 185 183 181 181 183 185 185 182 180 180 179 182 185 183 183 183 184 190 191 190 190 189 193 198 204 211 209 208 207 200 197 195 194 197 196 195 199 203 205 206 208 218
42 39 39 42 47 48 49 50 42 22 352 328 314 309 306 292 261 248 245 245 253 256 249 249 250 246 248 238 222 216 215 216 215 207 201 196 190 187 189 188 182 179 181 180 179 182 185 186 188 190 185 177 176 175 178 182 183 182 181 183 188 188 187 186 187 193 195 195 200 199 198 197 194 193 193 192 195 196 201 206 203 202 206 212 219
37 35 33 33 37 38 41 48 52 43 12 358 358 355 347 328 291 261 249 243 247 249 245 245 241 238 242 232 218 210 205 207 208 201 194 189 184 183 186 184 181 181 181 180 181 181 182 184 184 185 178 171 171 172 175 180 181 181 180 182 184 184 184 183 185 191 190 185 187 191 192 191 190 194 198 197 198 199 201 204 202 200 203 209 221
34 32 30 28 24 21 24 31 33 26 5 358 3 7 3 349 321 285 264 257 259 255 246 242 238 240 240 229 221 212 202 201 201 195 190 185 181 181 183 182 183 184 182 179 176 175 180 184 178 173 171 167 166 166 166 167 169 173 175 174 175 176 180 183 184 189 187 181 183 187 188 187 187 191 192 189 187 188 192 195 196 197 198 205 218
34 28 27 31 23 7 7 6 360 356 346 340 343 347 349 342 326 304 289 290 289 276 259 247 242 242 237 227 222 214 203 199 196 192 190 186 182 183 183 183 184 182 180 177 173 173 177 175 169 167 167 164 161 156 152 150 155 162 165 166 167 168 173 181 182 184 185 182 183 184 182 184 186 180 175 173 178 190 201 204 200 197 199 207 217
39 25 20 27 27 16 12 5 355 350 341 336 338 339 335 331 327 318 306 294 282 274 264 252 245 242 234 222 217 212 203 197 193 190 190 186 184 184 182 182 183 179 176 173 167 162 160 162 164 164 163 160 157 153 149 149 152 156 159 169 174 172 176 179 177 179 183 182 181 178 175 177 177 170 168 175 187 200 210 209 200 196 196 203 214
47 32 27 26 24 16 13 12 9 3 353 347 350 350 343 333 328 324 318 300 279 269 259 247 240 238 233 221 215 211 202 193 188 188 189 186 182 180 178 182 182 173 166 163 157 150 150 157 160 158 156 157 156 155 154 153 153 153 160 175 181 182 182 176 172 174 179 180 176 172 172 173 170 168 170 178 193 205 211 209 201 196 193 196 208
50 42 37 28 21 17 16 15 12 4 356 352 352 352 348 340 330 323 317 304 284 274 262 246 236 233 231 224 216 208 200 192 186 187 186 180 177 177 178 181 176 165 161 160 157 154 153 155 157 156 157 158 157 158 157 154 154 153 153 159 169 176 175 166 166 170 175 181 176 166 166 168 166 167 170 169 184 196 194 189 187 185 188 196 207
48 47 43 33 23 18 15 12 7 360 353 351 351 349 349 346 334 320 306 285 262 257 257 247 237 232 227 221 215 207 199 191 188 187 181 174 177 180 180 178 169 163 164 163 161 163 161 159 159 160 161 160 159 160 161 158 159 157 149 143 150 162 165 161 163 168 171 177 169 154 154 160 159 162 167 165 171 175 167 160 160 167 180 192 202
44 46 44 38 29 19 12 7 3 358 354 354 356 353 352 350 339 327 313 290 259 246 253 250 240 234 227 217 213 205 196 190 188 187 182 179 183 184 178 171 165 162 164 165 167 169 164 160 162 163 164 163 161 162 164 162 159 155 149 139 137 146 155 156 158 162 164 162 156 151 155 160 161 161 165 170 173 173 169 161 158 168 183 192 195
45 45 47 45 36 24 14 6 1 360 357 354 354 353 355 358 352 340 326 312 292 263 260 255 240 231 224 216 210 202 193 189 186 184 181 180 180 176 170 166 162 162 165 167 172 173 166 163 164 164 166 166 164 164 166 164 157 155 155 150 143 142 145 147 147 151 157 159 161 165 166 169 177 176 173 177 181 185 191 189 183 187 197 206 210
55 55 55 53 46 32 17 10 5 4 1 355 354 355 357 5 7 358 342 328 318 283 264 254 238 228 219 210 204 197 190 185 180 176 173 173 172 169 167 166 165 166 167 170 173 172 169 168 165 166 169 169 167 166 168 169 165 162 161 157 154 150 146 146 146 147 152 159 166 173 176 181 190 193 193 192 191 195 201 206 209 207 210 216 221
69 70 67 59 52 39 24 19 15 10 8 6 3 360 359 5 10 4 349 323 317 294 267 254 238 225 211 199 194 191 185 177 173 171 168 167 168 167 167 169 169 167 167 170 173 171 170 170 168 169 172 171 170 169 170 173 175 172 167 160 156 154 152 153 155 153 154 157 163 171 179 187 191 195 203 207 205 203 204 211 220 224 228 230 228
78 77 71 65 58 47 34 30 26 21 19 15 5 359 2 7 2 352 334 312 313 277 250 252 237 219 206 195 186 179 173 166 165 167 166 165 165 164 166 168 165 164 167 170 170 168 167 169 168 170 172 170 169 170 168 171 174 173 172 168 161 157 156 157 159 159 158 159 164 172 179 184 188 196 207 216 221 225 228 231 235 240 243 242 241
82 80 76 73 70 62 52 47 43 36 28 16 3 1 8 8 357 349 331 310 296 183 198 217 217 199 187 186 183 171 164 161 162 165 165 162 161 162 165 166 164 166 167 165 162 160 161 163 166 169 171 169 166 166 167 170 171 170 172 172 167 163 162 160 158 159 160 161 169 180 185 185 188 201 216 226 233 237 239 240 242 246 249 250 251
77 77 79 81 80 76 69 62 56 51 41 28 19 14 12 9 12 26 28 21 109 151 164 183 200 184 164 171 178 171 167 169 168 166 164 161 162 164 164 163 164 165 163 157 155 155 156 158 162 166 169 168 165 164 166 169 170 168 168 168 165 162 160 156 152 153 157 163 171 180 189 192 193 199 213 230 242 245 248 250 249 249 254 257 256
76 69 73 79 78 74 70 65 61 57 50 43 35 24 17 13 26 52 59 68 93 115 128 146 178 177 158 163 172 172 175 178 170 165 165 167 169 168 163 161 163 160 156 154 153 154 156 158 161 167 172 172 169 166 167 171 171 170 170 170 167 163 159 155 153 153 157 163 172 182 193 199 203 211 226 244 248 244 248 255 254 252 259 262 261
89 76 72 76 75 72 69 66 63 59 54 51 48 43 42 38 42 66 76 80 84 85 88 102 129 153 152 154 162 168 172 173 168 166 168 170 171 169 162 161 162 158 154 156 158 159 162 165 168 174 181 182 179 175 174 176 178 176 176 177 177 173 169 166 166 170 178 189 200 207 208 206 207 219 241 259 256 245 244 250 253 254 257 259 261
101 98 91 88 83 78 74 70 68 64 59 60 60 57 65 71 72 77 83 84 82 80 80 84 91 112 138 149 157 161 162 165 167 166 164 165 166 163 157 156 157 156 152 155 159 162 164 168 170 169 171 177 180 178 179 182 186 188 190 191 190 189 190 191 190 191 198 209 216 222 239 261 268 265 262 262 260 253 249 252 256 258 258 259 262
104 103 98 97 93 88 86 81 74 68 61 62 67 67 74 78 77 79 82 81 81 83 86 88 91 98 113 134 148 151 152 156 159 158 158 160 158 153 151 152 156 158 154 152 156 161 161 162 165 166 165 168 172 174 180 186 190 195 201 203 204 210 222 227 221 212 207 214 227 243 262 269 268 264 258 254 253 252 251 254 258 260 261 261 262
99 95 90 93 95 96 95 84 74 69 64 62 67 73 76 75 76 79 78 74 75 83 90 92 94 99 99 105 124 135 140 146 149 148 150 151 147 145 151 155 158 162 162 159 161 166 167 167 170 174 175 177 179 181 186 193 196 199 204 208 212 223 234 234 224 216 216 224 233 243 247 244 239 238 240 241 243 245 248 252 255 257 259 260 263
95 92 90 91 92 89 85 78 74 72 68 66 69 79 80 77 78 77 71 66 67 78 91 98 100 104 108 109 111 112 118 129 136 140 144 149 156 169 181 182 178 176 176 175 176 179 181 181 184 191 197 201 204 207 210 210 211 211 212 216 224 232 236 231 221 214 214 217 217 219 222 223 224 227 232 237 241 244 248 255 260 264 266 268 271
96 93 91 92 91 89 85 82 79 75 69 67 72 81 83 80 76 71 67 67 68 70 81 93 100 106 115 121 126 126 122 127 136 146 156 165 172 178 183 185 187 188 190 190 191 194 196 195 194 198 206 208 206 205 204 201 199 199 199 205 217 220 217 219 220 214 207 203 201 204 212 219 225 232 238 244 251 256 262 268 273 277 278 279 279
101 96 93 91 88 86 84 83 81 80 76 71 71 76 80 79 74 68 64 67 71 72 76 83 90 99 108 115 122 130 136 144 151 158 166 169 171 173 176 178 183 186 185 181 182 185 185 180 173 168 167 169 167 165 167 168 168 171 175 181 190 194 191 194 203 201 197 197 200 209 223 233 240 246 251 256 260 264 269 272 274 274 274 276 277
97 95 92 89 85 82 81 81 80 80 79 76 73 74 74 73 70 67 67 69 71 77 81 78 78 86 95 100 108 115 121 126 131 137 145 150 152 155 156 156 157 159 158 153 150 152 152 149 145 140 133 130 133 139 146 152 153 157 163 168 175 180 181 186 196 202 204 210 218 226 234 239 239 240 242 247 252 253 254 252 253 255 260 269 279
94 91 87 84 82 78 75 74 73 72 73 73 74 76 77 76 72 66 64 64 66 75 80 73 68 71 77 84 95 103 108 114 118 121 124 127 128 131 132 132 133 135 136 135 134 137 141 143 140 134 126 121 120 124 135 145 149 155 166 177 185 192 196 203 212 217 219 220 220 219 216 212 213 215 216 219 222 220 219 224 234 250 271 286 295
94 90 86 83 81 78 74 70 67 63 61 60 62 68 76 82 83 77 72 68 65 69 73 68 63 63 65 73 85 90 96 105 113 118 121 123 127 131 132 132 134 135 137 138 138 138 139 141 138 131 126 123 118 117 128 139 145 163 191 205 210 212 214 218 219 220 218 211 199 188 185 187 192 195 198 202 200 198 204 223 253 281 295 302 305
96 92 89 85 82 78 73 69 67 64 61 57 55 56 61 70 79 81 82 81 75 71 69 62 56 53 55 65 78 85 90 99 106 110 114 118 123 132 138 141 145 152 157 157 150 141 138 138 137 132 128 123 111 96 76 43 3 315 272 234 223 218 214 213 212 211 206 193 179 173 174 179 184 184 185 189 193 204 243 281 299 304 307 309 312
98 96 92 85 81 77 71 68 66 64 63 60 56 53 51 54 59 63 70 82 86 82 76 67 57 48 43 46 58 71 83 93 101 112 124 127 125 128 137 142 144 153 165 170 161 149 147 148 144 136 127 117 99 50 4 353 339 313 260 202 184 176 176 181 185 185 180 172 169 170 172 175 180 183 185 193 216 256 287 303 310 313 315 318 320
98 98 94 86 80 73 66 62 61 60 60 60 60 57 53 50 50 51 53 62 69 74 80 77 68 58 47 39 41 50 57 64 73 90 120 141 143 142 143 141 139 139 143 150 154 155 153 151 147 140 133 121 49 356 3 8 17 137 149 146 140 141 147 153 157 163 166 165 163 164 167 170 178 189 202 222 251 279 298 310 318 325 327 327 327
96 97 95 90 83 74 66 64 61 56 56 59 61 60 58 54 50 45 47 54 59 61 61 61 59 57 51 42 39 43 46 48 52 59 71 107 164 182 183 171 158 148 143 143 149 153 151 146 144 153 162 333 348 45 91 117 135 139 138 137 134 136 141 146 150 157 160 159 158 159 160 165 175 189 211 244 275 295 307 314 320 325 326 327 329
89 87 86 83 79 73 71 74 72 64 58 60 62 60 56 55 54 49 46 51 59 65 68 63 54 50 48 43 40 43 46 48 51 55 62 70 89 166 195 195 187 179 172 169 172 176 174 174 204 258 270 270 108 118 129 139 142 141 140 137 136 138 141 143 148 158 162 159 161 164 164 166 177 197 235 278 296 303 307 310 313 315 319 325 330